Location: Lafig�re
(44.4503°N, 4.0357°E)
Time: 21:47:48
(UTC+00:00)

Transit 2A Rocket - All Passes

Search period start: 21 January 2021 00:00
Search period end: 31 January 2021 00:00
Orbit: 592 x 910 km, 66.7° (Epoch: 21 January)

Date Brightness Start Highest point End Pass type
(mag) Time Alt. Az. Time Alt. Az. Time Alt. Az.
21 Jan - 11:23:33 10° SSE 11:27:38 21° ESE 11:31:29 10° ENE daylight
21 Jan - 13:04:27 10° SW 13:09:52 60° NW 13:14:50 10° NNE daylight
21 Jan - 14:50:57 10° WNW 14:53:22 13° NW 14:55:43 10° N daylight
21 Jan - 20:04:49 10° N 20:08:21 22° NE 20:11:46 10° E visible
21 Jan - 21:46:55 10° NW 21:51:08 47° WSW 21:55:14 10° S night (unlit)
22 Jan - 10:43:17 10° SE 10:45:19 12° ESE 10:47:18 10° E daylight
22 Jan - 12:21:43 10° SSW 12:27:15 83° ESE 12:32:18 10° NNE daylight
22 Jan - 14:06:38 10° W 14:10:21 19° NW 14:13:53 10° N daylight
22 Jan - 19:22:50 10° N 19:25:23 15° NE 19:27:52 10° ENE visible
22 Jan - 21:04:12 10° NNW 21:08:37 88° WSW 21:12:54 10° SSE night (unlit)
23 Jan - 11:39:23 10° S 11:44:42 50° ESE 11:49:35 10° NE daylight
23 Jan - 13:22:52 10° WSW 13:27:27 28° NW 13:31:44 10° NNE daylight
23 Jan - 20:21:41 10° NNW 20:26:00 51° NE 20:30:09 10° SE visible
23 Jan - 22:05:15 10° WNW 22:08:04 17° WSW 22:10:51 10° SSW night (unlit)
24 Jan - 10:57:32 10° S 11:02:14 29° ESE 11:06:38 10° NE daylight
24 Jan - 12:39:31 10° SW 12:44:41 44° NW 12:49:25 10° NNE daylight
24 Jan - 14:27:49 10° NW 14:28:27 10° NNW 14:29:04 10° NNW daylight
24 Jan - 19:39:18 10° NNW 19:43:14 30° NE 19:47:02 10° ESE visible
24 Jan - 21:21:52 10° NW 21:25:43 31° WSW 21:29:31 10° S night (unlit)
25 Jan - 10:16:22 10° SSE 10:19:52 17° ESE 10:23:12 10° ENE daylight
25 Jan - 11:56:33 10° SW 12:01:59 72° WNW 12:06:58 10° NNE daylight
25 Jan - 13:42:27 10° WNW 13:45:20 15° NW 13:48:08 10° N daylight
25 Jan - 18:57:08 10° N 19:00:21 19° NE 19:03:29 10° E visible
25 Jan - 20:38:58 10° NW 20:43:17 59° WSW 20:47:29 10° SSE visible
26 Jan - 11:13:57 10° SSW 11:19:24 70° ESE 11:24:23 10° NE daylight
26 Jan - 12:58:21 10° W 13:02:22 22° NW 13:06:09 10° N daylight
26 Jan - 18:15:19 10° N 18:17:20 13° NE 18:19:19 10° ENE visible
26 Jan - 19:56:19 10° NNW 20:00:44 75° ENE 20:05:00 10° SE visible
26 Jan - 21:41:17 10° W 21:42:33 11° WSW 21:43:48 10° WSW night (unlit)
27 Jan - 10:31:46 10° S 10:36:53 41° ESE 10:41:36 10° NE daylight
27 Jan - 12:14:44 10° WSW 12:19:31 33° NW 12:23:57 10° NNE daylight
27 Jan - 19:13:52 10° NNW 19:18:03 41° NE 19:22:07 10° ESE visible
27 Jan - 20:57:00 10° WNW 21:00:16 21° WSW 21:03:30 10° SSW visible
28 Jan - 09:50:07 10° SSE 09:54:27 24° ESE 09:58:30 10° ENE daylight
28 Jan - 11:31:31 10° SW 11:36:46 52° NW 11:41:35 10° NNE daylight
28 Jan - 13:18:42 10° NW 13:20:23 11° NNW 13:22:01 10° NNW daylight
28 Jan - 18:31:34 10° N 18:35:15 25° NE 18:38:51 10° ESE visible
28 Jan - 20:13:51 10° NW 20:17:54 39° WSW 20:21:53 10° S visible
29 Jan - 09:09:22 10° SE 09:12:06 14° ESE 09:14:44 10° ENE daylight
29 Jan - 10:48:41 10° SSW 10:54:07 85° WNW 10:59:06 10° NNE daylight
29 Jan - 12:34:02 10° W 12:37:20 17° NW 12:40:28 10° N daylight
29 Jan - 17:49:30 10° N 17:52:20 16° NE 17:55:06 10° E visible
29 Jan - 19:31:03 10° NW 19:35:25 74° WSW 19:39:42 10° SSE visible
30 Jan - 10:06:13 10° SSW 10:11:33 58° ESE 10:16:26 10° NE daylight
30 Jan - 11:50:07 10° W 11:54:24 25° NW 11:58:24 10° N daylight
30 Jan - 17:08:03 10° NNE 17:09:16 11° NNE 17:10:30 10° NE daylight
30 Jan - 18:48:28 10° NNW 18:52:49 60° NE 18:57:03 10° SE visible
30 Jan - 20:32:30 10° WNW 20:34:48 14° WSW 20:37:03 10° SW visible
